Weather Service Report


770 
ASUS41 KALY 030010
RWRALY

NEW YORK STATE HOURLY WEATHER ROUNDUP
NATIONAL WEATHER SERVICE ALBANY NY
800 PM EDT THU JUL 02 2015

NOTE: "FAIR" INDICATES FEW OR NO CLOUDS BELOW 12,000 FEET WITH NO
SIGNIFICANT WEATHER AND/OR NO OBSTRUCTIONS TO VISIBILITY.

NYZ032-033-038>043-046>054-057>066-NYZ062>081-030100-
EAST

  
CITY           SKY/WX    TMP DP  RH WIND       PRES   REMARKS
ALBANY         PTCLDY    72  49  44 NW8       29.89S                  
GLENS FALLS    CLEAR     72  49  44 W5        29.87S                  
POUGHKEEPSIE   CLOUDY    73  65  75 CALM      29.86S                  
NEWBURGH       PTCLDY    73  63  68 SW6       29.88S                  
MONTGOMERY     CLOUDY    72  62  71 NW3       29.87S                  
WHITE PLAINS   CLOUDY    71  62  73 CALM      29.87S                  
ISLIP          CLOUDY    70  61  73 W3        29.84F                  
NEW YORK CITY  CLOUDY    74  59  59 VRB5      29.86S                  
CENTRAL PARK   CLOUDY    74  58  57 CALM      29.89S                  
$$

NYZ005>009-017-018-044>046-055-056-030100-
CENTRAL

  
CITY           SKY/WX    TMP DP  RH WIND       PRES   REMARKS
FULTON         CLEAR     63  47  55 NW6       29.95S                  
SYRACUSE       PTCLDY    66  43  43 NW7       29.94S                  
ROME           CLEAR     66  42  41 W9        29.94R                  
ELMIRA         CLOUDY    67  56  67 N9        29.94R                  
BINGHAMTON     PTCLDY    66  53  63 N9        29.95R                  
MONTICELLO     MOCLDY    68  55  64 NW5       29.93S                  
$$

NYZ026>034-041>043-030100-
NORTH

  
CITY           SKY/WX    TMP DP  RH WIND       PRES   REMARKS
WATERTOWN      CLEAR     62  46  55 SW5       29.95R                  
FORT DRUM      NOT AVBL                                               
MASSENA        CLEAR     67  45  45 W5        29.91S                  
SARANAC LAKE   CLEAR     62  43  49 W6        29.93R                  
PLATTSBURGH    CLEAR     68  44  42 NW6       29.90R                  
$$

NYZ001>004-010>016-019>021-030100-
WEST

  
CITY           SKY/WX    TMP DP  RH WIND       PRES   REMARKS
NIAGARA FALLS  PTCLDY    68  45  43 N6        29.96S                  
BUFFALO        PTCLDY    68  45  43 N5        29.96S                  
DUNKIRK        CLEAR     67  50  54 NE5       29.96F                  
JAMESTOWN      CLEAR     63  48  59 N7        29.98S                  
WELLSVILLE     CLOUDY    65  54  67 NE8       29.99R                  
ROCHESTER      PTCLDY    68  45  43 N7        29.96S                  
PENN YAN       CLEAR     66  46  48 VRB3      29.96S                  
$$

             KEY
       WCI = WIND CHILL INDEX
       VSB = VISIBILITY
       HX  = HEAT INDEX
$$

Return to Home page


Western Regional Climate Center, wrcc@dri.edu